Location: Newark
(45.5000°N, 11.4167°E)
Time: 22:44:33
(UTC+00:00)

Transit 2A Rocket - Pass Details

Date: 01 September 2019
Orbit: 592 x 911 km, 66.7° (Epoch: 16 September)

Event Time Altitude Azimuth Distance (km) Brightness Sun altitude
Rises 22:56:30 0° 335° (NNW) 3,038 9.0 -36.2°
Reaches altitude 10° 22:59:40 10° 356° (N) 2,061 8.0 -36.3°
Enters shadow 23:01:46 16° 22° (NNE) 1,666 7.3 -36.3°
Maximum altitude 23:02:39 17° 36° (NE) 1,613 - -36.3°
Drops below altitude 10° 23:05:31 10° 77° (ENE) 1,971 - -36.4°
Sets 23:08:27 0° 99° (E) 2,843 - -36.4°
